Location: Eckley Miners' Village
(40.9930°N, 75.8630°W)
Time: 00:51:43
(UTC-04:00)

Vanguard 1 Rocket - Pass Details

Date: 19 March 2026
Orbit: 654 x 4213 km, 34.3° (Epoch: 20 April)

Event Time Altitude Azimuth Distance (km) Brightness Sun altitude
Exits shadow 06:30:12 - 233° (SW) 4,421 10.4 -8.0°
Reaches altitude 10° 06:33:15 10° 226° (SW) 3,320 9.8 -7.5°
Maximum altitude 06:39:36 30° 168° (SSE) 1,568 8.7 -6.3°
Drops below altitude 10° 06:43:56 10° 107° (ESE) 2,228 10.8 -5.4°
Sets 06:46:13 0° 95° (E) 3,027 12.5 -5.0°
